Back to catalog

STARLINK-4700

AliveCommunicationsVLEO
NORAD 53722·PAYLOAD·🇺🇸 United States

Launched Sep 5, 2022 from Cape Canaveral Space Force Station

Loading…

Next Passes (next 24 hours)

TLE

FreshSource: CelesTrak SupGP

Epoch: Sep 14, 2026, 21:22 UTC

1 53722C 22107Y   26257.89076389 -.00012393  00000+0 -36628-3 0  2577
2 53722  53.1575 111.6397 0001272  97.4073 299.8846 15.34386495    12

Track STARLINK-4700 in real time with AllMySat

Download on the App Store